AIE750 CYFB-CYRB

Flight info

Callsign AIE750
Flight time N/A
Altitude 38000
Route DCT 65N070W DCT 67N073W 71N081W 73N087W DCT
Aircraft B736/M-SDE2E3FGHIRWXY/LB1

Departure

Time 2026-04-19 23:57
Airport Iqaluit Airport (CYFB)

Arrival

Time N/A
Airport Resolute Bay Airport (CYRB)
Time Latitude Longitude Altitude Speed Heading
2026-04-19 23:39 63.75539 -68.54334 93 ft 0 kts 46°
2026-04-19 23:46 63.75527 -68.54363 95 ft 4 kts 43°
2026-04-19 23:46 63.75507 -68.54403 93 ft 4 kts 36°
2026-04-19 23:46 63.75484 -68.54434 92 ft 4 kts 18°
2026-04-19 23:46 63.75461 -68.54439 92 ft 4 kts 324°
2026-04-19 23:47 63.75454 -68.54426 93 ft 0 kts 316°
2026-04-19 23:49 63.75455 -68.54429 93 ft 3 kts 316°
2026-04-19 23:49 63.75469 -68.54459 92 ft 3 kts 316°
2026-04-19 23:50 63.75482 -68.54488 93 ft 3 kts 316°
2026-04-19 23:50 63.75495 -68.54516 93 ft 3 kts 316°
2026-04-19 23:50 63.75508 -68.54545 93 ft 4 kts 315°
2026-04-19 23:50 63.75532 -68.54601 93 ft 6 kts 315°
2026-04-19 23:51 63.75570 -68.54687 94 ft 9 kts 315°
2026-04-19 23:51 63.75621 -68.54801 93 ft 11 kts 315°
2026-04-19 23:51 63.75682 -68.54941 93 ft 13 kts 316°
2026-04-19 23:51 63.75749 -68.55082 94 ft 13 kts 314°
2026-04-19 23:52 63.75784 -68.55263 94 ft 13 kts 282°
2026-04-19 23:52 63.75803 -68.55453 97 ft 12 kts 283°
2026-04-19 23:52 63.75822 -68.55638 96 ft 12 kts 283°
2026-04-19 23:52 63.75841 -68.55819 96 ft 12 kts 283°
2026-04-19 23:53 63.75859 -68.56003 94 ft 12 kts 283°
2026-04-19 23:53 63.75905 -68.56155 95 ft 12 kts 315°
2026-04-19 23:53 63.75968 -68.56296 93 ft 13 kts 315°
2026-04-19 23:53 63.76032 -68.56438 90 ft 13 kts 315°
2026-04-19 23:54 63.76097 -68.56583 93 ft 13 kts 315°
2026-04-19 23:54 63.76139 -68.56677 91 ft 13 kts 315°
2026-04-19 23:54 63.76202 -68.56817 94 ft 13 kts 315°
2026-04-19 23:54 63.76265 -68.56956 94 ft 13 kts 315°
2026-04-19 23:55 63.76330 -68.57095 95 ft 13 kts 316°
2026-04-19 23:55 63.76379 -68.57264 94 ft 12 kts 276°
2026-04-19 23:55 63.76402 -68.57397 93 ft 9 kts 324°
2026-04-19 23:55 63.76447 -68.57360 93 ft 8 kts 90°
2026-04-19 23:56 63.76406 -68.57264 91 ft 12 kts 136°
2026-04-19 23:56 63.76224 -68.56864 95 ft 72 kts 135°
2026-04-19 23:56 63.75704 -68.55718 93 ft 137 kts 135°
2026-04-19 23:56 63.74923 -68.53973 338 ft 171 kts 137°
2026-04-19 23:57 63.74043 -68.52078 1130 ft 177 kts 135°
2026-04-19 23:57 63.73123 -68.50081 1821 ft 192 kts 134°
2026-04-19 23:57 63.72099 -68.47810 2075 ft 221 kts 135°
2026-04-19 23:57 63.70960 -68.45277 2606 ft 235 kts 136°
2026-04-19 23:58 63.69789 -68.42674 3499 ft 235 kts 137°
2026-04-19 23:58 63.68629 -68.40095 4452 ft 235 kts 138°
2026-04-19 23:58 63.67434 -68.37470 5048 ft 247 kts 138°
2026-04-19 23:58 63.66180 -68.34711 5720 ft 256 kts 138°
2026-04-19 23:59 63.64930 -68.31980 6444 ft 259 kts 138°
2026-04-19 23:59 63.63637 -68.29156 7265 ft 260 kts 139°
2026-04-19 23:59 63.62346 -68.26337 8025 ft 264 kts 139°
2026-04-19 23:59 63.61017 -68.23434 8809 ft 268 kts 139°
2026-04-20 00:00 63.59677 -68.20510 9588 ft 270 kts 139°
2026-04-20 00:00 63.58328 -68.17567 10374 ft 272 kts 140°
2026-04-20 00:00 63.56913 -68.14497 10611 ft 295 kts 139°
2026-04-20 00:00 63.55406 -68.11231 11130 ft 305 kts 139°
2026-04-20 00:01 63.53907 -68.07980 11848 ft 309 kts 139°
2026-04-20 00:01 63.52527 -68.04076 12626 ft 320 kts 120°
2026-04-20 00:01 63.52088 -67.93968 13939 ft 348 kts 79°
2026-04-20 00:02 63.53125 -67.88994 14636 ft 359 kts 57°
2026-04-20 00:02 63.54914 -67.85013 15325 ft 369 kts 36°
2026-04-20 00:02 63.57252 -67.82558 15961 ft 377 kts 14°
2026-04-20 00:02 63.59859 -67.82061 16572 ft 380 kts 351°
2026-04-20 00:03 63.62383 -67.83725 17193 ft 378 kts 329°
2026-04-20 00:03 63.64662 -67.86650 17845 ft 379 kts 323°
2026-04-20 00:03 63.66833 -67.89926 18704 ft 373 kts 321°
2026-04-20 00:03 63.68950 -67.93263 19300 ft 378 kts 320°
2026-04-20 00:04 63.71119 -67.96689 19793 ft 385 kts 320°
2026-04-20 00:04 63.73341 -68.00157 20345 ft 389 kts 321°
2026-04-20 00:04 63.75589 -68.03615 20941 ft 393 kts 321°
2026-04-20 00:04 63.77866 -68.07080 21505 ft 397 kts 321°
2026-04-20 00:05 63.80182 -68.10580 22068 ft 402 kts 322°
2026-04-20 00:05 63.82521 -68.14104 22600 ft 406 kts 322°
2026-04-20 00:05 63.84887 -68.17666 23123 ft 410 kts 322°
2026-04-20 00:05 63.87274 -68.21261 23563 ft 414 kts 321°
2026-04-20 00:06 63.89679 -68.24889 24003 ft 417 kts 321°
2026-04-20 00:06 63.92107 -68.28560 24423 ft 421 kts 321°
2026-04-20 00:06 63.94562 -68.32279 24850 ft 424 kts 321°
2026-04-20 00:06 63.96998 -68.35977 25265 ft 428 kts 321°
2026-04-20 00:07 63.99480 -68.39751 25773 ft 430 kts 321°
2026-04-20 00:07 64.01974 -68.43550 26235 ft 432 kts 321°
2026-04-20 00:07 64.04484 -68.47388 26582 ft 437 kts 321°
2026-04-20 00:07 64.07021 -68.51278 26948 ft 441 kts 321°
2026-04-20 00:08 64.09574 -68.55200 27332 ft 444 kts 321°
2026-04-20 00:08 64.12149 -68.59164 27712 ft 447 kts 320°
2026-04-20 00:08 64.14737 -68.63156 28072 ft 450 kts 320°
2026-04-20 00:08 64.17342 -68.67184 28423 ft 453 kts 320°
2026-04-20 00:09 64.19968 -68.71254 28779 ft 457 kts 320°
2026-04-20 00:09 64.22609 -68.75355 29121 ft 460 kts 320°
2026-04-20 00:09 64.25263 -68.79487 29446 ft 463 kts 320°
2026-04-20 00:09 64.27940 -68.83663 29727 ft 465 kts 320°
2026-04-20 00:10 64.30629 -68.87868 30005 ft 467 kts 320°
2026-04-20 00:10 64.33327 -68.92093 30375 ft 468 kts 321°
2026-04-20 00:10 64.35983 -68.96264 30706 ft 469 kts 321°
2026-04-20 00:10 64.38689 -69.00529 30937 ft 471 kts 321°
2026-04-20 00:11 64.41402 -69.04816 31157 ft 474 kts 320°
2026-04-20 00:11 64.44133 -69.09142 31394 ft 477 kts 320°
2026-04-20 00:11 64.46867 -69.13483 31621 ft 479 kts 320°
2026-04-20 00:11 64.49623 -69.17868 31879 ft 480 kts 320°
2026-04-20 00:12 64.52381 -69.22264 32217 ft 479 kts 320°
2026-04-20 00:12 64.55122 -69.26644 32582 ft 478 kts 320°
2026-04-20 00:12 64.57863 -69.31035 32914 ft 478 kts 320°
2026-04-20 00:12 64.60605 -69.35441 33203 ft 479 kts 320°
2026-04-20 00:13 64.63343 -69.39854 33488 ft 479 kts 320°
2026-04-20 00:13 64.66087 -69.44287 33833 ft 477 kts 320°
2026-04-20 00:13 64.68808 -69.48690 34176 ft 474 kts 320°
2026-04-20 00:13 64.71521 -69.53092 34465 ft 474 kts 320°
2026-04-20 00:14 64.74226 -69.57494 34677 ft 475 kts 320°
2026-04-20 00:14 64.76942 -69.61927 34905 ft 475 kts 320°
2026-04-20 00:14 64.79653 -69.66361 35167 ft 475 kts 320°
2026-04-20 00:14 64.82354 -69.70790 35435 ft 474 kts 320°
2026-04-20 00:15 64.85023 -69.75176 35665 ft 474 kts 320°
2026-04-20 00:15 64.87724 -69.79627 35893 ft 474 kts 320°
2026-04-20 00:15 64.90416 -69.84075 36119 ft 474 kts 320°
2026-04-20 00:15 64.93109 -69.88535 36333 ft 473 kts 320°
2026-04-20 00:16 64.95804 -69.93006 36572 ft 473 kts 320°
2026-04-20 00:16 64.98495 -69.97483 36859 ft 472 kts 320°
2026-04-20 00:16 65.01210 -70.01837 37092 ft 473 kts 323°
2026-04-20 00:16 65.04033 -70.05897 37289 ft 475 kts 325°
2026-04-20 00:17 65.06895 -70.09807 37453 ft 476 kts 326°
2026-04-20 00:17 65.12674 -70.17575 37479 ft 477 kts 326°
2026-04-20 00:18 65.18421 -70.25405 37478 ft 474 kts 326°
2026-04-20 00:18 65.24112 -70.33298 37494 ft 472 kts 325°
2026-04-20 00:19 65.29768 -70.41222 37505 ft 470 kts 325°
2026-04-20 00:19 65.35407 -70.49168 37552 ft 470 kts 325°
2026-04-20 00:20 65.41049 -70.57157 37521 ft 476 kts 325°
2026-04-20 00:20 65.46756 -70.65271 37519 ft 477 kts 325°
2026-04-20 00:21 65.52479 -70.73446 37519 ft 478 kts 325°
2026-04-20 00:21 65.58208 -70.81674 37535 ft 478 kts 325°
2026-04-20 00:22 65.63927 -70.89929 37533 ft 478 kts 325°
2026-04-20 00:22 65.69617 -70.98186 37535 ft 477 kts 325°
2026-04-20 00:23 65.75302 -71.06480 37567 ft 476 kts 325°
2026-04-20 00:23 65.80939 -71.14748 37556 ft 475 kts 325°
2026-04-20 00:24 65.86592 -71.23079 37545 ft 474 kts 325°
2026-04-20 00:24 65.92229 -71.31431 37562 ft 473 kts 325°
2026-04-20 00:25 65.97857 -71.39816 37553 ft 472 kts 325°
2026-04-20 00:25 66.03460 -71.48204 37567 ft 471 kts 325°
2026-04-20 00:26 66.09051 -71.56620 37575 ft 471 kts 325°
2026-04-20 00:26 66.14642 -71.65081 37572 ft 471 kts 324°
2026-04-20 00:27 66.20197 -71.73529 37584 ft 471 kts 324°
2026-04-20 00:27 66.25782 -71.82069 37587 ft 472 kts 324°
2026-04-20 00:28 66.31375 -71.90665 37589 ft 473 kts 324°
2026-04-20 00:28 66.36975 -71.99319 37589 ft 473 kts 324°
2026-04-20 00:29 66.42576 -72.08019 37587 ft 474 kts 324°
2026-04-20 00:29 66.48175 -72.16764 37633 ft 475 kts 324°
2026-04-20 00:30 66.53781 -72.25567 37614 ft 476 kts 324°
2026-04-20 00:30 66.59350 -72.34358 37590 ft 476 kts 324°
2026-04-20 00:31 66.64950 -72.43245 37615 ft 476 kts 324°
2026-04-20 00:31 66.70536 -72.52159 37617 ft 475 kts 324°
2026-04-20 00:32 66.76130 -72.61136 37606 ft 475 kts 324°
2026-04-20 00:32 66.81703 -72.70128 37624 ft 474 kts 324°
2026-04-20 00:33 66.87267 -72.79153 37658 ft 474 kts 324°
2026-04-20 00:33 66.92787 -72.88157 37637 ft 474 kts 324°
2026-04-20 00:34 66.98329 -72.97243 37632 ft 473 kts 324°
2026-04-20 00:34 67.03875 -73.06282 37640 ft 473 kts 324°
2026-04-20 00:35 67.09460 -73.15224 37645 ft 472 kts 324°
2026-04-20 00:35 67.15033 -73.24178 37645 ft 472 kts 324°
2026-04-20 00:36 67.20586 -73.33176 37645 ft 471 kts 324°
2026-04-20 00:36 67.26131 -73.42228 37678 ft 471 kts 324°
2026-04-20 00:37 67.31642 -73.51279 37661 ft 471 kts 324°
2026-04-20 00:37 67.37178 -73.60421 37651 ft 471 kts 324°
2026-04-20 00:38 67.42698 -73.69587 37669 ft 471 kts 324°
2026-04-20 00:38 67.48222 -73.78811 37667 ft 471 kts 324°
2026-04-20 00:39 67.53734 -73.88065 37669 ft 470 kts 324°
2026-04-20 00:39 67.59238 -73.97359 37683 ft 471 kts 324°
2026-04-20 00:40 67.64751 -74.06723 37703 ft 473 kts 323°
2026-04-20 00:40 67.70242 -74.16100 37705 ft 473 kts 323°
2026-04-20 00:41 67.75777 -74.25605 37692 ft 473 kts 323°
2026-04-20 00:41 67.80393 -74.33573 37692 ft 473 kts 323°
2026-04-20 00:42 67.85860 -74.43061 37693 ft 472 kts 323°
2026-04-20 00:42 67.91351 -74.52645 37701 ft 472 kts 323°
2026-04-20 00:43 67.96825 -74.62255 37706 ft 471 kts 323°
2026-04-20 00:43 68.02288 -74.71900 37746 ft 470 kts 323°
2026-04-20 00:44 68.07740 -74.81583 37720 ft 470 kts 323°
2026-04-20 00:44 68.13181 -74.91302 37712 ft 469 kts 322°
2026-04-20 00:45 68.18573 -75.00987 37726 ft 468 kts 322°
2026-04-20 00:45 68.23981 -75.10758 37718 ft 468 kts 322°
2026-04-20 00:46 68.29384 -75.20578 37718 ft 468 kts 322°
2026-04-20 00:46 68.34778 -75.30438 37732 ft 467 kts 322°
2026-04-20 00:47 68.40161 -75.40336 37770 ft 468 kts 322°
2026-04-20 00:47 68.45554 -75.50310 37738 ft 468 kts 322°
2026-04-20 00:48 68.50907 -75.60268 37730 ft 468 kts 322°
2026-04-20 00:48 68.56281 -75.70322 37737 ft 468 kts 322°
2026-04-20 00:49 68.61656 -75.80438 37735 ft 468 kts 322°
2026-04-20 00:49 68.67017 -75.90589 37749 ft 468 kts 321°
2026-04-20 00:50 68.72382 -76.00808 37744 ft 468 kts 321°
2026-04-20 00:50 68.77698 -76.10994 37793 ft 468 kts 321°
2026-04-20 00:51 68.83051 -76.21312 37759 ft 469 kts 321°
2026-04-20 00:51 68.88401 -76.31686 37752 ft 469 kts 321°
2026-04-20 00:52 68.93732 -76.42084 37760 ft 468 kts 321°
2026-04-20 00:52 68.99058 -76.52537 37757 ft 468 kts 321°
2026-04-20 00:53 69.04378 -76.63040 37763 ft 468 kts 321°
2026-04-20 00:53 69.09687 -76.73586 37761 ft 468 kts 321°
2026-04-20 00:54 69.14994 -76.84192 37766 ft 468 kts 321°
2026-04-20 00:54 69.20288 -76.94839 37771 ft 468 kts 321°
2026-04-20 00:55 69.25576 -77.05536 37773 ft 467 kts 321°
2026-04-20 00:55 69.30828 -77.16226 37771 ft 467 kts 320°
2026-04-20 00:56 69.36096 -77.27016 37776 ft 466 kts 320°
2026-04-20 00:56 69.41353 -77.37848 37783 ft 466 kts 320°
2026-04-20 00:57 69.46565 -77.48655 37775 ft 466 kts 320°
2026-04-20 00:57 69.51803 -77.59582 37776 ft 466 kts 320°
2026-04-20 00:58 69.57038 -77.70572 37785 ft 467 kts 320°
2026-04-20 00:58 69.62272 -77.81627 37792 ft 466 kts 320°
2026-04-20 00:59 69.67492 -77.92723 37781 ft 466 kts 320°
2026-04-20 00:59 69.72702 -78.03865 37788 ft 466 kts 320°
2026-04-20 01:00 69.77897 -78.15047 37777 ft 466 kts 320°
2026-04-20 01:00 69.83051 -78.26208 37790 ft 466 kts 320°
2026-04-20 01:01 69.88229 -78.37495 37797 ft 465 kts 320°
2026-04-20 01:01 69.93406 -78.48850 37791 ft 466 kts 319°
2026-04-20 01:02 69.98569 -78.60247 37804 ft 466 kts 319°
2026-04-20 01:02 70.03733 -78.71719 37798 ft 466 kts 319°
2026-04-20 01:03 70.08880 -78.83227 37800 ft 466 kts 319°
2026-04-20 01:03 70.14028 -78.94809 37797 ft 466 kts 319°
2026-04-20 01:04 70.19169 -79.06452 37800 ft 466 kts 319°
2026-04-20 01:04 70.24305 -79.18159 37797 ft 466 kts 319°
2026-04-20 01:05 70.29443 -79.29946 37848 ft 467 kts 319°
2026-04-20 01:05 70.34540 -79.41714 37814 ft 467 kts 319°
2026-04-20 01:06 70.39658 -79.53608 37802 ft 466 kts 319°
2026-04-20 01:06 70.44753 -79.65527 37811 ft 465 kts 318°
2026-04-20 01:07 70.49844 -79.77515 37809 ft 465 kts 318°
2026-04-20 01:07 70.54910 -79.89523 37808 ft 464 kts 318°
2026-04-20 01:08 70.59966 -80.01585 37811 ft 464 kts 318°
2026-04-20 01:08 70.65005 -80.13686 37813 ft 463 kts 318°
2026-04-20 01:09 70.70041 -80.25862 37813 ft 464 kts 318°
2026-04-20 01:09 70.75069 -80.38098 37827 ft 463 kts 318°
2026-04-20 01:10 70.80089 -80.50397 37820 ft 463 kts 318°
2026-04-20 01:10 70.87556 -80.68842 37818 ft 462 kts 317°
2026-04-20 01:11 70.92538 -80.81253 37823 ft 462 kts 317°
2026-04-20 01:11 70.97507 -80.93707 37823 ft 462 kts 317°
2026-04-20 01:12 71.02458 -81.06260 37822 ft 461 kts 317°
2026-04-20 01:12 71.07366 -81.19010 37836 ft 462 kts 317°
2026-04-20 01:13 71.12260 -81.31842 37825 ft 462 kts 316°
2026-04-20 01:13 71.17146 -81.44718 37830 ft 461 kts 316°
2026-04-20 01:14 71.22022 -81.57638 37837 ft 461 kts 316°
2026-04-20 01:14 71.26891 -81.70622 37843 ft 461 kts 316°
2026-04-20 01:15 71.31749 -81.83667 37835 ft 461 kts 316°
2026-04-20 01:15 71.36597 -81.96773 37847 ft 460 kts 316°
2026-04-20 01:16 71.41430 -82.09930 37853 ft 461 kts 316°
2026-04-20 01:16 71.46254 -82.23157 37857 ft 461 kts 316°
2026-04-20 01:17 71.51074 -82.36460 37855 ft 461 kts 316°
2026-04-20 01:17 71.55845 -82.49724 37847 ft 460 kts 316°
2026-04-20 01:18 71.60642 -82.63149 37852 ft 460 kts 316°
2026-04-20 01:18 71.65419 -82.76616 37849 ft 460 kts 316°
2026-04-20 01:19 71.70190 -82.90158 37853 ft 459 kts 315°
2026-04-20 01:19 71.74949 -83.03762 37876 ft 460 kts 316°
2026-04-20 01:20 71.79698 -83.17437 37859 ft 460 kts 316°
2026-04-20 01:20 71.84446 -83.31204 37848 ft 459 kts 315°
2026-04-20 01:21 71.89172 -83.45000 37851 ft 460 kts 315°
2026-04-20 01:21 71.93892 -83.58881 37852 ft 459 kts 315°
2026-04-20 01:22 71.98594 -83.72810 37856 ft 459 kts 315°
2026-04-20 01:22 72.03294 -83.86834 37869 ft 459 kts 315°
2026-04-20 01:23 72.07975 -84.00899 37863 ft 459 kts 315°
2026-04-20 01:23 72.12651 -84.15055 37872 ft 459 kts 315°
2026-04-20 01:24 72.17288 -84.29190 37883 ft 459 kts 315°
2026-04-20 01:24 72.21948 -84.43502 37870 ft 459 kts 315°
2026-04-20 01:25 72.26578 -84.57826 37872 ft 458 kts 315°
2026-04-20 01:25 72.31202 -84.72234 37871 ft 458 kts 315°
2026-04-20 01:26 72.35804 -84.86679 37874 ft 457 kts 314°
2026-04-20 01:26 72.39622 -84.98746 37878 ft 457 kts 314°
2026-04-20 01:27 72.44205 -85.13329 37872 ft 457 kts 314°
2026-04-20 01:27 72.49522 -85.30380 37882 ft 457 kts 314°
2026-04-20 01:28 72.53307 -85.42611 37879 ft 456 kts 314°
2026-04-20 01:28 72.57853 -85.57399 37868 ft 456 kts 314°
2026-04-20 01:29 72.62376 -85.72223 37870 ft 455 kts 314°
2026-04-20 01:29 72.66897 -85.87153 37877 ft 455 kts 314°
2026-04-20 01:30 72.71367 -86.02022 37877 ft 455 kts 314°
2026-04-20 01:30 72.75852 -86.17058 37880 ft 455 kts 314°
2026-04-20 01:31 72.80330 -86.32182 37900 ft 455 kts 314°
2026-04-20 01:31 72.84798 -86.47384 37881 ft 455 kts 314°
2026-04-20 01:32 72.89249 -86.62647 37871 ft 455 kts 314°
2026-04-20 01:32 72.93692 -86.78002 37861 ft 455 kts 314°
2026-04-20 01:33 72.98133 -86.93449 37874 ft 455 kts 314°
2026-04-20 01:33 73.02334 -87.09396 37879 ft 454 kts 308°
2026-04-20 01:34 73.06176 -87.26560 37873 ft 454 kts 306°
2026-04-20 01:34 73.09968 -87.43925 37877 ft 454 kts 306°
2026-04-20 01:35 73.13783 -87.61282 37892 ft 454 kts 307°
2026-04-20 01:35 73.17602 -87.78622 37891 ft 454 kts 307°
2026-04-20 01:36 73.21420 -87.96052 37881 ft 454 kts 306°
2026-04-20 01:36 73.25192 -88.13413 37901 ft 453 kts 306°
2026-04-20 01:37 73.28980 -88.31000 37835 ft 454 kts 306°
2026-04-20 01:37 73.30882 -88.39887 37277 ft 459 kts 306°
2026-04-20 01:37 73.32776 -88.48776 36727 ft 456 kts 306°
2026-04-20 01:38 73.34647 -88.57592 36317 ft 450 kts 306°
2026-04-20 01:38 73.36478 -88.66256 35859 ft 446 kts 306°
2026-04-20 01:38 73.38307 -88.74948 35420 ft 443 kts 306°
2026-04-20 01:38 73.40124 -88.83614 34963 ft 439 kts 306°
2026-04-20 01:39 73.41923 -88.92233 34490 ft 437 kts 306°
2026-04-20 01:39 73.43705 -89.00805 34037 ft 434 kts 305°
2026-04-20 01:39 73.45474 -89.09353 33520 ft 432 kts 305°
2026-04-20 01:39 73.47230 -89.17867 33044 ft 428 kts 305°
2026-04-20 01:40 73.48966 -89.26319 32584 ft 424 kts 305°
2026-04-20 01:40 73.50678 -89.34690 32139 ft 421 kts 305°
2026-04-20 01:40 73.52377 -89.43024 31719 ft 417 kts 305°
2026-04-20 01:40 73.54055 -89.51293 31297 ft 413 kts 305°
2026-04-20 01:41 73.55722 -89.59537 30888 ft 410 kts 305°
2026-04-20 01:41 73.57368 -89.67712 30468 ft 407 kts 305°
2026-04-20 01:41 73.58999 -89.75845 30062 ft 404 kts 305°
2026-04-20 01:41 73.60620 -89.83954 29573 ft 401 kts 305°
2026-04-20 01:42 73.62221 -89.91996 29112 ft 397 kts 305°
2026-04-20 01:42 73.63781 -89.99865 28708 ft 392 kts 305°
2026-04-20 01:42 73.65341 -90.07760 28269 ft 388 kts 305°
2026-04-20 01:42 73.66882 -90.15589 27860 ft 384 kts 305°
2026-04-20 01:43 73.68403 -90.23344 27443 ft 380 kts 305°
2026-04-20 01:43 73.69905 -90.31027 27042 ft 376 kts 305°
2026-04-20 01:43 73.71390 -90.38658 26629 ft 373 kts 305°
2026-04-20 01:43 73.72865 -90.46259 26230 ft 370 kts 305°
2026-04-20 01:44 73.74321 -90.53793 25825 ft 368 kts 305°
2026-04-20 01:44 73.75764 -90.61285 25429 ft 365 kts 304°
2026-04-20 01:44 73.77175 -90.68636 25115 ft 361 kts 304°
2026-04-20 01:44 73.78589 -90.76024 24719 ft 358 kts 304°
2026-04-20 01:45 73.79991 -90.83381 24354 ft 356 kts 304°
2026-04-20 01:45 73.81383 -90.90711 23977 ft 355 kts 304°
2026-04-20 01:45 73.82767 -90.98021 23595 ft 353 kts 304°
2026-04-20 01:45 73.84143 -91.05317 23148 ft 351 kts 304°
2026-04-20 01:46 73.85505 -91.12564 22728 ft 348 kts 304°
2026-04-20 01:46 73.86851 -91.19748 22346 ft 345 kts 304°
2026-04-20 01:46 73.88165 -91.26786 21970 ft 342 kts 304°
2026-04-20 01:46 73.89483 -91.33868 21579 ft 339 kts 304°
2026-04-20 01:47 73.90785 -91.40888 21221 ft 336 kts 304°
2026-04-20 01:47 73.92076 -91.47872 20831 ft 334 kts 304°
2026-04-20 01:47 73.93358 -91.54828 20470 ft 331 kts 304°
2026-04-20 01:47 73.94627 -91.61741 20094 ft 330 kts 304°
2026-04-20 01:48 73.95893 -91.68660 19720 ft 328 kts 304°
2026-04-20 01:48 73.97145 -91.75521 19353 ft 326 kts 304°
2026-04-20 01:48 73.98390 -91.82364 18995 ft 325 kts 304°
2026-04-20 01:48 73.99628 -91.89196 18608 ft 323 kts 304°
2026-04-20 01:49 74.00860 -91.96016 18248 ft 323 kts 304°
2026-04-20 01:49 74.02086 -92.02825 17848 ft 322 kts 304°
2026-04-20 01:49 74.03307 -92.09623 17468 ft 320 kts 304°
2026-04-20 01:49 74.04515 -92.16377 17106 ft 318 kts 304°
2026-04-20 01:50 74.05714 -92.23098 16746 ft 316 kts 304°
2026-04-20 01:50 74.06904 -92.29793 16375 ft 314 kts 303°
2026-04-20 01:50 74.08087 -92.36469 16025 ft 313 kts 303°
2026-04-20 01:50 74.09261 -92.43117 15665 ft 311 kts 303°
2026-04-20 01:51 74.10426 -92.49735 15311 ft 310 kts 303°
2026-04-20 01:51 74.11574 -92.56273 14963 ft 309 kts 303°
2026-04-20 01:51 74.12729 -92.62871 14615 ft 308 kts 303°
2026-04-20 01:51 74.13878 -92.69456 14268 ft 307 kts 303°
2026-04-20 01:52 74.15019 -92.76021 13925 ft 305 kts 303°
2026-04-20 01:52 74.16158 -92.82591 13545 ft 304 kts 303°
2026-04-20 01:52 74.17286 -92.89118 13176 ft 303 kts 303°
2026-04-20 01:52 74.18406 -92.95621 12821 ft 301 kts 303°
2026-04-20 01:53 74.19518 -93.02097 12487 ft 299 kts 303°
2026-04-20 01:53 74.20618 -93.08524 12125 ft 297 kts 303°
2026-04-20 01:53 74.21713 -93.14935 11793 ft 295 kts 303°
2026-04-20 01:53 74.22804 -93.21348 11438 ft 294 kts 302°
2026-04-20 01:54 74.23886 -93.27724 11103 ft 293 kts 302°
2026-04-20 01:54 74.24955 -93.34045 10771 ft 291 kts 302°
2026-04-20 01:54 74.26019 -93.40360 10431 ft 290 kts 302°
2026-04-20 01:54 74.27079 -93.46660 10094 ft 289 kts 302°
2026-04-20 01:55 74.28111 -93.52818 9919 ft 282 kts 302°
2026-04-20 01:55 74.29139 -93.58973 9561 ft 281 kts 302°
2026-04-20 01:55 74.30159 -93.65094 9238 ft 279 kts 302°
2026-04-20 01:55 74.31168 -93.71169 8926 ft 277 kts 302°
2026-04-20 01:56 74.32172 -93.77229 8600 ft 276 kts 302°
2026-04-20 01:56 74.33169 -93.83263 8290 ft 274 kts 302°
2026-04-20 01:56 74.34156 -93.89258 7983 ft 272 kts 302°
2026-04-20 01:56 74.35139 -93.95245 7661 ft 271 kts 302°
2026-04-20 01:57 74.36114 -94.01195 7360 ft 269 kts 302°
2026-04-20 01:57 74.37080 -94.07112 7047 ft 268 kts 302°
2026-04-20 01:57 74.38045 -94.13040 6750 ft 267 kts 302°
2026-04-20 01:57 74.39001 -94.18929 6443 ft 266 kts 302°
2026-04-20 01:58 74.39953 -94.24805 6127 ft 265 kts 302°
2026-04-20 01:58 74.40893 -94.30631 5832 ft 262 kts 302°
2026-04-20 01:58 74.41826 -94.36422 5545 ft 260 kts 302°
2026-04-20 01:58 74.42748 -94.42156 5270 ft 257 kts 302°
2026-04-20 01:59 74.43662 -94.47850 4990 ft 255 kts 302°
2026-04-20 01:59 74.44564 -94.53503 4692 ft 253 kts 301°
2026-04-20 01:59 74.45458 -94.59125 4419 ft 251 kts 301°
2026-04-20 01:59 74.46332 -94.64625 4122 ft 249 kts 302°
2026-04-20 02:00 74.47433 -94.69470 3813 ft 245 kts 328°
2026-04-20 02:00 74.49020 -94.71242 3556 ft 239 kts
2026-04-20 02:00 74.50575 -94.69543 3438 ft 229 kts 25°
2026-04-20 02:00 74.52087 -94.68330 3263 ft 223 kts 349°
2026-04-20 02:01 74.53424 -94.70897 3202 ft 213 kts 325°
2026-04-20 02:01 74.54645 -94.73916 3082 ft 207 kts 329°
2026-04-20 02:01 74.55865 -94.76593 2983 ft 200 kts 332°
2026-04-20 02:01 74.57070 -94.79008 2846 ft 194 kts 334°
2026-04-20 02:02 74.58272 -94.81251 2656 ft 192 kts 335°
2026-04-20 02:02 74.59479 -94.83412 2417 ft 192 kts 335°
2026-04-20 02:02 74.60690 -94.85529 2165 ft 192 kts 336°
2026-04-20 02:02 74.61900 -94.87619 1980 ft 189 kts 336°
2026-04-20 02:03 74.63087 -94.89656 1925 ft 185 kts 336°
2026-04-20 02:03 74.64267 -94.91519 1916 ft 184 kts 347°
2026-04-20 02:03 74.65530 -94.92133 1934 ft 184 kts 352°
2026-04-20 02:03 74.66804 -94.92991 1938 ft 187 kts 349°
2026-04-20 02:04 74.68079 -94.94000 1932 ft 188 kts 348°
2026-04-20 02:04 74.69339 -94.95062 1925 ft 188 kts 347°
2026-04-20 02:04 74.70613 -94.96170 1923 ft 188 kts 347°
2026-04-20 02:04 74.71880 -94.97240 1919 ft 186 kts 347°
2026-04-20 02:05 74.73144 -94.98305 1920 ft 185 kts 348°
2026-04-20 02:05 74.74402 -94.99368 1925 ft 185 kts 348°
2026-04-20 02:05 74.75662 -95.00434 1931 ft 186 kts 348°
2026-04-20 02:05 74.76930 -95.01506 1933 ft 187 kts 348°
2026-04-20 02:06 74.78207 -95.02586 1932 ft 188 kts 348°
2026-04-20 02:06 74.79485 -95.03669 1931 ft 189 kts 348°
2026-04-20 02:06 74.80769 -95.04758 1929 ft 189 kts 348°
2026-04-20 02:06 74.82056 -95.05850 1929 ft 190 kts 348°
2026-04-20 02:07 74.83348 -95.06946 1930 ft 190 kts 348°
2026-04-20 02:07 74.84643 -95.08046 1929 ft 191 kts 348°
2026-04-20 02:07 74.85941 -95.09148 1924 ft 190 kts 347°
2026-04-20 02:07 74.87211 -95.10226 1923 ft 189 kts 348°
2026-04-20 02:08 74.88491 -95.11317 1924 ft 188 kts 348°
2026-04-20 02:08 74.89763 -95.12401 1922 ft 186 kts 348°
2026-04-20 02:08 74.91018 -95.13471 1922 ft 184 kts 348°
2026-04-20 02:08 74.92262 -95.14534 1927 ft 182 kts 348°
2026-04-20 02:09 74.93496 -95.15589 1930 ft 182 kts 348°
2026-04-20 02:09 74.94738 -95.16652 1944 ft 185 kts 347°
2026-04-20 02:09 74.96004 -95.17737 1944 ft 188 kts 348°
2026-04-20 02:09 74.97281 -95.18832 1935 ft 187 kts 348°
2026-04-20 02:10 74.98550 -95.19920 1927 ft 186 kts 348°
2026-04-20 02:10 74.99809 -95.21000 1937 ft 185 kts 348°
2026-04-20 02:10 75.01061 -95.22077 1923 ft 184 kts 348°
2026-04-20 02:10 75.02303 -95.23160 1932 ft 183 kts 348°
2026-04-20 02:11 75.03543 -95.24245 1938 ft 182 kts 348°
2026-04-20 02:11 75.04776 -95.25328 1952 ft 185 kts 348°
2026-04-20 02:11 75.06042 -95.26440 1954 ft 188 kts 348°
2026-04-20 02:11 75.07325 -95.27567 1947 ft 189 kts 348°
2026-04-20 02:12 75.08605 -95.28692 1935 ft 188 kts 347°
2026-04-20 02:12 75.09882 -95.29816 1936 ft 188 kts 348°
2026-04-20 02:12 75.11154 -95.30937 1937 ft 187 kts 348°
2026-04-20 02:12 75.12420 -95.32053 1937 ft 186 kts 347°
2026-04-20 02:13 75.13678 -95.33163 1936 ft 185 kts 348°
2026-04-20 02:13 75.14934 -95.34272 1937 ft 185 kts 348°
2026-04-20 02:13 75.16186 -95.35380 1937 ft 184 kts 348°
2026-04-20 02:13 75.17433 -95.36482 1939 ft 184 kts 348°
2026-04-20 02:14 75.18681 -95.37587 1941 ft 184 kts 348°
2026-04-20 02:14 75.19929 -95.38692 1941 ft 184 kts 348°
2026-04-20 02:14 75.21181 -95.39802 1940 ft 185 kts 348°
2026-04-20 02:14 75.22438 -95.40916 1942 ft 185 kts 348°
2026-04-20 02:15 75.23275 -95.41659 1940 ft 186 kts 348°
2026-04-20 02:15 75.24540 -95.42783 1941 ft 187 kts 347°
2026-04-20 02:15 75.25808 -95.43909 1944 ft 187 kts 348°
2026-04-20 02:15 75.27499 -95.45412 1944 ft 188 kts 348°
2026-04-20 02:16 75.28779 -95.46552 1941 ft 189 kts 348°
2026-04-20 02:16 75.29646 -95.47324 1940 ft 189 kts 348°
2026-04-20 02:16 75.30937 -95.48475 1938 ft 190 kts 348°
2026-04-20 02:16 75.32227 -95.49626 1939 ft 191 kts 348°
2026-04-20 02:17 75.33511 -95.50774 1941 ft 191 kts 348°
2026-04-20 02:17 75.34808 -95.51933 1939 ft 191 kts 348°
2026-04-20 02:17 75.36104 -95.53093 1935 ft 191 kts 348°
2026-04-20 02:17 75.37397 -95.54250 1929 ft 190 kts 347°
2026-04-20 02:18 75.38681 -95.55399 1927 ft 189 kts 348°
2026-04-20 02:18 75.39959 -95.56543 1930 ft 187 kts 347°
2026-04-20 02:18 75.41226 -95.57677 1930 ft 186 kts 347°
2026-04-20 02:18 75.42487 -95.58808 1931 ft 185 kts 348°
2026-04-20 02:19 75.43740 -95.59934 1937 ft 184 kts 347°
2026-04-20 02:19 75.44991 -95.61055 1942 ft 184 kts 348°
2026-04-20 02:19 75.46226 -95.62163 1941 ft 185 kts 347°
2026-04-20 02:19 75.47481 -95.63290 1944 ft 185 kts 347°
2026-04-20 02:20 75.48744 -95.64423 1944 ft 186 kts 348°
2026-04-20 02:20 75.50009 -95.65561 1944 ft 187 kts 348°
2026-04-20 02:20 75.51283 -95.66705 1944 ft 188 kts 348°
2026-04-20 02:20 75.52563 -95.67856 1945 ft 189 kts 347°
2026-04-20 02:21 75.55145 -95.70181 1944 ft 191 kts 348°
2026-04-20 02:21 75.56446 -95.71353 1943 ft 192 kts 348°
2026-04-20 02:21 75.57752 -95.72530 1941 ft 193 kts 348°
2026-04-20 02:22 75.59063 -95.73713 1939 ft 193 kts 348°
2026-04-20 02:22 75.60366 -95.74891 1923 ft 189 kts 347°
2026-04-20 02:22 75.61620 -95.76026 1926 ft 186 kts 348°
2026-04-20 02:22 75.62901 -95.77189 1940 ft 187 kts 348°
2026-04-20 02:23 75.64162 -95.78333 1951 ft 189 kts 348°
2026-04-20 02:23 75.65449 -95.79503 1949 ft 190 kts 348°
2026-04-20 02:23 75.66746 -95.80682 1949 ft 192 kts 347°
2026-04-20 02:23 75.68053 -95.81871 1948 ft 193 kts 348°
2026-04-20 02:24 75.69362 -95.83063 1938 ft 193 kts 348°
2026-04-20 02:24 75.70664 -95.84250 1923 ft 190 kts 348°
2026-04-20 02:24 75.71941 -95.85420 1921 ft 187 kts 348°
2026-04-20 02:24 75.73212 -95.86596 1938 ft 189 kts 347°
2026-04-20 02:25 75.74498 -95.87783 1944 ft 190 kts 348°
2026-04-20 02:25 75.75795 -95.88988 1941 ft 192 kts 348°
2026-04-20 02:25 75.77097 -95.90195 1942 ft 193 kts 347°
2026-04-20 02:25 75.78410 -95.91414 1942 ft 194 kts 347°
2026-04-20 02:26 75.79711 -95.92624 1934 ft 193 kts 347°
2026-04-20 02:26 75.81014 -95.93833 1922 ft 190 kts 347°
2026-04-20 02:26 75.82290 -95.95023 1925 ft 188 kts 347°
2026-04-20 02:26 75.83565 -95.96210 1938 ft 188 kts 348°
2026-04-20 02:27 75.84846 -95.97402 1945 ft 189 kts 348°
2026-04-20 02:27 75.86135 -95.98606 1942 ft 190 kts 347°
2026-04-20 02:27 75.87431 -95.99812 1943 ft 191 kts 347°
2026-04-20 02:27 75.88735 -96.01030 1941 ft 192 kts 347°
2026-04-20 02:28 75.90044 -96.02254 1936 ft 193 kts 348°
2026-04-20 02:28 75.91365 -96.03489 1935 ft 194 kts 348°
2026-04-20 02:28 75.92665 -96.04710 1931 ft 193 kts 347°
2026-04-20 02:28 75.93967 -96.05929 1920 ft 190 kts 348°
2026-04-20 02:29 75.95245 -96.07132 1925 ft 188 kts 348°
2026-04-20 02:29 75.96523 -96.08334 1939 ft 188 kts 348°
2026-04-20 02:29 75.97807 -96.09542 1943 ft 189 kts 347°
2026-04-20 02:29 75.99097 -96.10758 1945 ft 191 kts 348°
2026-04-20 02:30 76.00395 -96.11980 1945 ft 192 kts 348°
2026-04-20 02:30 76.01698 -96.13213 1944 ft 193 kts 348°
2026-04-20 02:30 76.02999 -96.14443 1942 ft 194 kts 347°
2026-04-20 02:30 76.04312 -96.15687 1939 ft 193 kts 348°
2026-04-20 02:31 76.05620 -96.16908 1923 ft 191 kts 347°
2026-04-20 02:31 76.06911 -96.18100 1921 ft 190 kts 347°
2026-04-20 02:31 76.08209 -96.19303 1932 ft 192 kts 347°
2026-04-20 02:31 76.09513 -96.20511 1948 ft 193 kts 348°
2026-04-20 02:32 76.10829 -96.21732 1929 ft 194 kts 348°
2026-04-20 02:32 76.12153 -96.22965 1945 ft 195 kts 347°
2026-04-20 02:32 76.13482 -96.24200 1931 ft 197 kts 348°
2026-04-20 02:32 76.14816 -96.25442 1923 ft 195 kts 348°
2026-04-20 02:33 76.16135 -96.26671 1923 ft 192 kts 348°
2026-04-20 02:33 76.17429 -96.27878 1924 ft 190 kts 347°
2026-04-20 02:33 76.18719 -96.29082 1935 ft 189 kts 347°
2026-04-20 02:33 76.20004 -96.30281 1935 ft 189 kts 347°
2026-04-20 02:34 76.21291 -96.31487 1931 ft 189 kts 348°
2026-04-20 02:34 76.22578 -96.32691 1935 ft 189 kts 348°
2026-04-20 02:34 76.23867 -96.33899 1931 ft 190 kts 348°
2026-04-20 02:34 76.25143 -96.35097 1938 ft 190 kts 347°
2026-04-20 02:35 76.26440 -96.36312 1938 ft 192 kts 348°
2026-04-20 02:35 76.27759 -96.37554 1937 ft 193 kts 348°
2026-04-20 02:35 76.29051 -96.38772 1941 ft 193 kts 348°